Location: Budapest
(47.4979°N, 19.0402°E)
Time: 00:22:03
(UTC+01:00)

N. Korean satellite - Pass Details

Date: 14 October 2017
Orbit: 461 x 513 km, 97.2° (Epoch: 11 December)

Event Time Altitude Azimuth Distance (km) Brightness Sun altitude
Rises 19:08:48 0° 184° (S) 2,544 10.3 -12.8°
Reaches altitude 10° 19:10:58 10° 193° (SSW) 1,659 9.4 -13.1°
Maximum altitude 19:14:18 37° 262° (W) 754 8.2 -13.7°
Drops below altitude 10° 19:17:37 10° 332° (NNW) 1,647 9.7 -14.3°
Sets 19:19:46 0° 341° (NNW) 2,522 10.5 -14.6°
